Location: Rounton
(54.4000°N, 1.3500°W)
Time: 13:54:06
(UTC+00:00)

Transit 2A - Pass Details

Date: 08 December 2021
Orbit: 591 x 967 km, 66.7° (Epoch: 17 January)

Event Time Altitude Azimuth Distance (km) Brightness Sun altitude
Rises 01:30:01 0° 253° (WSW) 3,451 - -53.9°
Reaches altitude 10° 01:32:35 10° 261° (W) 2,566 - -53.6°
Maximum altitude 01:38:16 41° 331° (NNW) 1,337 - -53.1°
Drops below altitude 10° 01:44:16 10° 41° (NE) 2,710 - -52.5°
Exits shadow 01:44:49 - 42° (NE) 2,892 9.4 -52.5°
Sets 01:47:04 0° 48° (NE) 3,666 10.1 -52.2°
